Satellite-Ground Cal/Val Region Overpasses Predictions

Prediction of Satellite NPP Overpassing Cal/Val Region: PacNW

Region Location: (Latitude: 10.00, Longitude: 139.50) to (Latitude: 22.70, Longitude: 165.60).

Table of predicted overpasses for the next 14.0 days since TLE Epoch: 4/12/2013
Interval Starting Time Starting Location Ending Time Ending Location
1 04/12/2013 14:51:33 ( 22.70, 161.73) 04/12/2013 14:55:09 ( 10.02, 158.71)
2 04/13/2013 03:42:09 ( 10.04, 143.86) 04/13/2013 03:45:44 ( 22.66, 140.85)
3 04/13/2013 14:33:34 ( 19.08, 165.59) 04/13/2013 14:36:08 ( 10.03, 163.47)
4 04/13/2013 16:14:03 ( 22.65, 141.10) 04/13/2013 16:15:55 ( 16.08, 139.50)
5 04/14/2013 03:23:07 ( 10.02, 148.62) 04/14/2013 03:26:42 ( 22.64, 145.61)
6 04/14/2013 15:55:01 ( 22.67, 145.86) 04/14/2013 15:58:36 ( 10.05, 142.86)
7 04/15/2013 03:04:06 ( 10.01, 153.38) 04/15/2013 03:07:42 ( 22.69, 150.36)
8 04/15/2013 15:36:00 ( 22.68, 150.62) 04/15/2013 15:39:36 ( 10.00, 147.60)
9 04/16/2013 02:45:05 ( 10.05, 158.13) 04/16/2013 02:48:40 ( 22.67, 155.12)
10 04/16/2013 15:16:58 ( 22.70, 155.38) 04/16/2013 15:20:34 ( 10.02, 152.36)
11 04/17/2013 02:26:04 ( 10.04, 162.89) 04/17/2013 02:29:39 ( 22.66, 159.88)
12 04/17/2013 14:57:58 ( 22.65, 160.13) 04/17/2013 15:01:33 ( 10.03, 157.12)
13 04/18/2013 02:09:32 ( 18.77, 165.59) 04/18/2013 02:10:38 ( 22.64, 164.64)
14 04/18/2013 03:48:32 ( 10.03, 142.27) 04/18/2013 03:51:51 ( 21.71, 139.50)
15 04/18/2013 14:38:56 ( 22.66, 164.89) 04/18/2013 14:42:31 ( 10.04, 161.88)
16 04/18/2013 16:20:26 ( 22.66, 139.51) 04/18/2013 16:20:27 ( 22.60, 139.50)
17 04/19/2013 03:29:31 ( 10.02, 147.03) 04/19/2013 03:33:07 ( 22.70, 144.01)
18 04/19/2013 16:01:25 ( 22.67, 144.27) 04/19/2013 16:05:00 ( 10.05, 141.27)
19 04/20/2013 03:10:30 ( 10.01, 151.79) 04/20/2013 03:14:06 ( 22.69, 148.77)
20 04/20/2013 15:42:23 ( 22.68, 149.03) 04/20/2013 15:45:58 ( 10.06, 146.03)
21 04/21/2013 02:51:29 ( 10.06, 156.54) 04/21/2013 02:55:04 ( 22.68, 153.53)
22 04/21/2013 15:23:22 ( 22.69, 153.79) 04/21/2013 15:26:58 ( 10.01, 150.77)
23
